EW5523 Weather Reports


time (UTC)temp
F
wind
direction
speed
knots
gust
knots
rain 1hr
in
rain 24hr
in
rain mn
in
humidity
%
barometer
mb
20260906110015 61 211 0.0 4.3 0.00 0.00 0.00 96 1003.9
20260906104520 61 170 0.0 4.3 0.00 0.00 0.00 96 1003.8
20260906103012 61 198 0.0 5.2 0.00 0.00 0.00 96 1003.9
20260906101520 61 153 0.9 7.8 0.00 0.00 0.00 96 1003.7
20260906100018 61 190 0.0 5.2 0.00 0.00 0.00 96 1003.5
20260906094511 61 195 0.0 3.5 0.00 0.00 0.00 96 1003.5
20260906093010 60 165 0.0 4.3 0.00 0.00 0.00 96 1003.4
20260906091514 60 210 0.0 4.3 0.00 0.00 0.00 97 1003.5
20260906090014 60 205 0.9 5.2 0.00 0.00 0.00 97 1003.3
20260906084508 60 238 0.0 4.3 0.00 0.00 0.00 97 1003.3
20260906083108 60 197 0.9 4.3 0.00 0.00 0.00 97 1003.1
20260906081508 60 183 0.0 1.7 0.00 0.00 0.00 96 1003.0
20260906080007 60 209 0.0 4.3 0.00 0.00 0.00 96 1003.0
20260906074507 60 203 0.0 4.3 0.00 0.00 0.00 96 1002.9
20260906073005 59 223 0.9 4.3 0.00 0.00 0.00 96 1002.8
20260906071505 59 222 0.0 5.2 0.00 0.00 0.00 95 1002.7
20260906070005 59 207 0.0 4.3 0.00 0.00 0.00 95 1002.7
20260906064504 59 219 0.0 3.5 0.00 0.00 0.00 95 1002.4
20260906063004 59 165 0.0 7.8 0.00 0.00 0.00 94 1002.2
20260906061502 59 110 0.0 3.5 0.00 0.00 0.00 94 1002.3
20260906060100 59 213 0.9 6.1 0.00 0.00 0.00 95 1002.3
20260906054606 59 158 0.0 4.3 0.00 0.00 0.00 95 1002.3
20260906053102 59 193 0.9 6.1 0.00 0.00 0.00 95 1002.2
20260906051612 59 170 0.9 8.7 0.00 0.00 0.00 95 1002.3
20260906050058 59 158 0.9 6.1 0.00 0.00 0.00 95 1002.3
20260906044606 59 172 0.0 5.2 0.00 0.00 0.00 95 1002.4
20260906043057 59 257 0.0 4.3 0.00 0.00 0.00 95 1002.5
20260906041556 59 189 0.0 3.5 0.00 0.00 0.00 95 1002.6
20260906040134 59 139 0.0 7.8 0.00 0.00 0.00 94 1002.6
20260906034604 59 142 0.0 5.2 0.00 0.00 0.00 93 1002.4
20260906033105 59 224 0.0 1.7 0.00 0.00 0.00 92 1002.6
20260906031554 59 186 0.0 3.5 0.00 0.00 0.00 92 1002.4
20260906030057 59 153 0.0 4.3 0.00 0.00 0.00 91 1002.4
20260906024607 59 182 0.0 6.1 0.00 0.00 0.00 92 1002.3
20260906023101 59 174 0.0 6.1 0.00 0.00 0.00 92 1002.3
20260906021550 59 164 0.0 6.1 0.00 0.00 0.00 92 1002.5
20260906020050 59 164 0.9 6.1 0.00 0.00 0.00 93 1002.5
20260906014549 58 171 0.0 5.2 0.00 0.00 0.00 94 1002.6
20260906013048 58 173 0.0 4.3 0.00 0.00 0.00 94 1002.7
20260906011548 58 166 0.0 3.5 0.00 0.00 0.00 95 1002.7
20260906010047 58 180 0.9 6.1 0.00 0.00 0.00 95 1002.7
20260906004546 58 120 0.0 5.2 0.00 0.00 0.00 95 1002.8
20260906003045 58 154 0.0 4.3 0.00 0.00 0.00 95 1003.0
20260906001543 58 170 0.9 7.0 0.00 0.00 0.00 95 1003.2
20260906000042 58 177 0.0 4.3 0.00 0.00 0.00 94 1003.5
20260905234540 58 137 0.0 4.3 0.00 0.00 0.00 94 1003.7
20260905233044 58 163 0.0 2.6 0.00 0.00 0.00 94 1003.8
20260905231538 58 162 0.0 3.5 0.00 0.00 0.00 94 1003.9
20260905230037 58 155 0.0 0.0 0.00 0.00 0.00 94 1004.0
20260905224606 58 160 0.0 1.7 0.00 0.00 0.00 94 1004.1
20260905223037 58 146 0.0 0.9 0.00 0.00 0.00 93 1004.4
20260905221533 58 143 0.0 0.0 0.00 0.00 0.00 93 1004.4
20260905220033 58 160 0.0 0.0 0.00 0.00 0.00 93 1004.7
20260905214536 58 161 0.0 0.0 0.00 0.00 0.00 93 1004.8
20260905213032 58 206 0.0 0.0 0.00 0.00 0.00 92 1005.0
20260905211541 58 206 0.0 0.0 0.00 0.00 0.00 91 1005.2
20260905210039 59 206 0.0 0.0 0.00 0.00 0.00 90 1005.2
20260905204525 59 227 0.0 0.0 0.00 0.00 0.00 89 1005.7
20260905203026 60 287 0.0 3.5 0.00 0.00 0.00 86 1005.6
20260905201522 61 274 1.7 9.6 0.00 0.00 0.00 82 1005.9
20260905200022 63 197 0.0 0.9 0.00 0.00 0.00 72 1004.5
20260905194518 63 156 0.0 0.0 0.00 0.00 0.00 71 1004.1
20260905193012 63 152 0.0 0.0 0.00 0.00 0.00 70 1004.3
20260905191511 63 148 0.0 0.0 0.00 0.00 0.00 69 1004.6
20260905190009 64 124 0.0 0.0 0.00 0.00 0.00 68 1004.8
20260905184515 64 166 0.0 0.0 0.00 0.00 0.00 68 1005.1
20260905183004 64 179 0.0 0.0 0.00 0.00 0.00 68 1005.4
20260905181502 64 152 0.0 2.6 0.00 0.00 0.00 67 1005.5
20260905180001 64 155 0.0 0.0 0.00 0.00 0.00 67 1005.7
20260905174600 64 147 0.0 1.7 0.00 0.00 0.00 67 1005.8
20260905173121 65 149 0.0 0.9 0.00 0.00 0.00 66 1006.0
20260905171557 65 153 0.0 0.0 0.00 0.00 0.00 65 1006.1
20260905170109 65 141 0.0 0.0 0.00 0.00 0.00 65 1006.1
20260905164603 65 141 0.0 0.0 0.00 0.00 0.00 65 1006.3
20260905163053 66 156 0.0 0.9 0.00 0.00 0.00 64 1006.4
20260905161605 66 139 0.0 0.9 0.00 0.00 0.00 64 1006.5
20260905160051 66 164 0.0 1.7 0.00 0.00 0.00 64 1006.6
20260905154552 66 153 0.0 0.9 0.00 0.00 0.00 65 1006.7
20260905153050 67 162 0.0 0.9 0.00 0.00 0.00 65 1006.7
20260905151550 67 163 0.0 0.9 0.00 0.00 0.00 64 1006.6
20260905150052 68 162 0.0 0.0 0.00 0.00 0.00 65 1006.6
20260905144549 68 160 0.0 0.9 0.00 0.00 0.00 64 1006.6
20260905143048 69 163 0.0 0.0 0.00 0.00 0.00 62 1006.6
20260905141547 70 163 0.0 0.0 0.00 0.00 0.00 61 1006.7
20260905140045 71 164 0.0 0.0 0.00 0.00 0.00 59 1006.8
20260905134544 72 201 0.0 0.0 0.00 0.00 0.00 58 1007.0
20260905133043 72 147 0.0 0.9 0.00 0.00 0.00 55 1007.0
20260905131541 73 119 0.0 1.7 0.00 0.00 0.00 55 1007.2
20260905130041 73 135 0.0 0.9 0.00 0.00 0.00 55 1007.4
20260905124539 72 189 0.0 6.1 0.00 0.00 0.00 55 1007.5
20260905123043 73 137 0.9 6.1 0.00 0.00 0.00 54 1007.7
20260905121540 73 157 0.0 4.3 0.00 0.00 0.00 55 1007.8
20260905120036 73 141 1.7 11.3 0.00 0.00 0.00 54 1007.8
20260905114535 73 125 0.0 6.1 0.00 0.00 0.00 55 1007.9
20260905113033 73 154 0.0 8.7 0.00 0.00 0.00 54 1008.1
20260905111534 73 213 0.9 8.7 0.00 0.00 0.00 54 1008.1